Time,TemperatureF,DewpointF,PressureIn,WindDirection,WindDirectionDegrees,WindSpeedMPH,WindSpeedGustMPH,Humidity,HourlyPrecipIn,Conditions,Clouds,dailyrainin,SolarRadiationWatts/m^2,SoftwareType,DateUTC
2013-05-17 00:00:00,55.9,42.6,29.80,North,0,0.0,0.0,61,0.00,CLR,,0.00,0.0,WeatherDisplay:10.37,2013-05-17 04:00:00,
2013-05-17 00:01:00,55.9,42.6,29.80,North,0,0.0,0.0,61,0.00,CLR,,0.00,0.0,WeatherDisplay:10.37,2013-05-17 04:01:00,
2013-05-17 00:06:00,55.5,42.7,29.80,North,0,0.0,0.0,62,0.00,CLR,,0.00,0.0,WeatherDisplay:10.37,2013-05-17 04:06:00,
2013-05-17 00:11:00,55.2,42.4,29.80,North,0,0.0,0.0,62,0.00,CLR,,0.00,0.0,WeatherDisplay:10.37,2013-05-17 04:11:00,
2013-05-17 00:16:00,54.9,42.5,29.80,North,0,0.0,0.0,63,0.00,CLR,,0.00,0.0,WeatherDisplay:10.37,2013-05-17 04:16:00,
2013-05-17 00:21:00,54.7,42.3,29.81,North,0,0.0,0.0,63,0.00,CLR,,0.00,0.0,WeatherDisplay:10.37,2013-05-17 04:21:00,
2013-05-17 00:26:00,54.5,42.6,29.81,North,0,0.0,0.0,64,0.00,CLR,,0.00,0.0,WeatherDisplay:10.37,2013-05-17 04:26:00,
2013-05-17 00:31:00,54.2,42.3,29.81,North,0,0.0,0.0,64,0.00,CLR,,0.00,0.0,WeatherDisplay:10.37,2013-05-17 04:31:00,
2013-05-17 00:36:00,53.9,42.4,29.81,North,0,0.0,0.0,65,0.00,CLR,,0.00,0.0,WeatherDisplay:10.37,2013-05-17 04:36:00,
2013-05-17 00:41:00,53.7,42.2,29.81,North,0,0.0,0.0,65,0.00,CLR,,0.00,0.0,WeatherDisplay:10.37,2013-05-17 04:41:00,
2013-05-17 00:46:00,53.5,42.4,29.82,North,0,0.0,0.0,66,0.00,CLR,,0.00,0.0,WeatherDisplay:10.37,2013-05-17 04:46:00,
2013-05-17 00:51:00,53.2,42.1,29.82,North,0,0.0,0.0,66,0.00,CLR,,0.00,0.0,WeatherDisplay:10.37,2013-05-17 04:51:00,
2013-05-17 00:56:00,53.0,42.3,29.82,North,0,0.0,0.0,67,0.00,CLR,,0.00,0.0,WeatherDisplay:10.37,2013-05-17 04:56:00,
2013-05-17 01:01:00,52.7,42.0,29.82,North,0,0.0,0.0,67,0.00,CLR,,0.00,0.0,WeatherDisplay:10.37,2013-05-17 05:01:00,
2013-05-17 01:06:00,52.5,42.2,29.82,North,0,0.0,0.0,68,0.00,CLR,,0.00,0.0,WeatherDisplay:10.37,2013-05-17 05:06:00,
2013-05-17 01:11:00,52.2,42.0,29.82,North,0,0.0,0.0,68,0.00,CLR,,0.00,0.0,WeatherDisplay:10.37,2013-05-17 05:11:00,
2013-05-17 01:16:00,51.9,42.0,29.82,North,0,0.0,0.0,69,0.00,CLR,,0.00,0.0,WeatherDisplay:10.37,2013-05-17 05:16:00,
2013-05-17 01:21:00,51.5,41.7,29.82,North,0,0.0,0.0,69,0.00,CLR,,0.00,0.0,WeatherDisplay:10.37,2013-05-17 05:21:00,
2013-05-17 01:26:00,51.2,41.4,29.82,North,0,0.0,0.0,69,0.00,CLR,,0.00,0.0,WeatherDisplay:10.37,2013-05-17 05:26:00,
2013-05-17 01:31:00,50.8,41.4,29.83,North,0,0.0,0.0,70,0.00,CLR,,0.00,0.0,WeatherDisplay:10.37,2013-05-17 05:31:00,
2013-05-17 01:36:00,50.5,41.4,29.82,North,0,0.0,0.0,71,0.00,CLR,,0.00,0.0,WeatherDisplay:10.37,2013-05-17 05:36:00,
2013-05-17 01:41:00,50.1,41.4,29.83,North,0,0.0,0.0,72,0.00,CLR,,0.00,0.0,WeatherDisplay:10.37,2013-05-17 05:41:00,
2013-05-17 01:46:00,49.7,41.0,29.83,North,0,0.0,0.0,72,0.00,CLR,,0.00,0.0,WeatherDisplay:10.37,2013-05-17 05:46:00,
2013-05-17 01:51:00,49.4,41.1,29.83,North,0,0.0,0.0,73,0.00,CLR,,0.00,0.0,WeatherDisplay:10.37,2013-05-17 05:51:00,
2013-05-17 01:56:00,49.0,41.1,29.83,North,0,0.0,0.0,74,0.00,CLR,,0.00,0.0,WeatherDisplay:10.37,2013-05-17 05:56:00,
2013-05-17 02:01:00,48.6,41.0,29.83,North,0,0.0,0.0,75,0.00,CLR,,0.00,0.0,WeatherDisplay:10.37,2013-05-17 06:01:00,
2013-05-17 02:06:00,48.3,41.1,29.83,North,0,0.0,0.0,76,0.00,CLR,,0.00,0.0,WeatherDisplay:10.37,2013-05-17 06:06:00,
2013-05-17 02:11:00,48.0,41.1,29.83,North,0,0.0,0.0,77,0.00,CLR,,0.00,0.0,WeatherDisplay:10.37,2013-05-17 06:11:00,
2013-05-17 02:16:00,47.7,40.8,29.84,North,0,0.0,0.0,77,0.00,CLR,,0.00,0.0,WeatherDisplay:10.37,2013-05-17 06:16:00,
2013-05-17 02:21:00,47.4,40.9,29.84,North,0,0.0,0.0,78,0.00,CLR,,0.00,0.0,WeatherDisplay:10.37,2013-05-17 06:21:00,
2013-05-17 02:26:00,47.2,40.7,29.84,North,0,0.0,0.0,78,0.00,CLR,,0.00,0.0,WeatherDisplay:10.37,2013-05-17 06:26:00,
2013-05-17 02:31:00,47.0,41.1,29.84,North,0,0.0,0.0,80,0.00,CLR,,0.00,0.0,WeatherDisplay:10.37,2013-05-17 06:31:00,
2013-05-17 02:36:00,46.8,41.0,29.84,North,0,0.0,0.0,80,0.00,CLR,,0.00,0.0,WeatherDisplay:10.37,2013-05-17 06:36:00,
2013-05-17 02:41:00,46.9,41.1,29.84,North,0,0.0,0.0,80,0.00,CLR,,0.00,0.0,WeatherDisplay:10.37,2013-05-17 06:41:00,
2013-05-17 02:46:00,47.2,41.3,29.84,North,0,0.0,0.0,80,0.00,CLR,,0.00,0.0,WeatherDisplay:10.37,2013-05-17 06:46:00,
2013-05-17 02:51:00,47.5,41.0,29.84,North,0,0.0,0.0,78,0.00,CLR,,0.00,0.0,WeatherDisplay:10.37,2013-05-17 06:51:00,
2013-05-17 02:56:00,47.7,41.2,29.84,North,0,0.0,0.0,78,0.00,CLR,,0.00,0.0,WeatherDisplay:10.37,2013-05-17 06:56:00,
2013-05-17 03:01:00,47.7,40.8,29.84,North,0,0.0,0.0,77,0.00,CLR,,0.00,0.0,WeatherDisplay:10.37,2013-05-17 07:01:00,
2013-05-17 03:06:00,47.8,41.3,29.84,North,0,0.0,0.0,78,0.00,CLR,,0.00,0.0,WeatherDisplay:10.37,2013-05-17 07:06:00,
2013-05-17 03:11:00,47.8,41.3,29.84,North,0,0.0,0.0,78,0.00,CLR,,0.00,0.0,WeatherDisplay:10.37,2013-05-17 07:11:00,
2013-05-17 03:16:00,47.7,41.2,29.84,North,0,0.0,0.0,78,0.00,CLR,,0.00,0.0,WeatherDisplay:10.37,2013-05-17 07:16:00,
2013-05-17 03:21:00,47.5,41.0,29.85,North,0,0.0,0.0,78,0.00,CLR,,0.00,0.0,WeatherDisplay:10.37,2013-05-17 07:21:00,
2013-05-17 03:26:00,47.3,40.8,29.85,North,0,0.0,0.0,78,0.00,CLR,,0.00,0.0,WeatherDisplay:10.37,2013-05-17 07:26:00,
2013-05-17 03:31:00,47.0,40.2,29.85,North,0,0.0,0.0,77,0.00,CLR,,0.00,0.0,WeatherDisplay:10.37,2013-05-17 07:31:00,
2013-05-17 03:36:00,46.8,40.3,29.85,North,0,0.0,0.0,78,0.00,CLR,,0.00,0.0,WeatherDisplay:10.37,2013-05-17 07:36:00,
2013-05-17 03:41:00,46.5,40.0,29.85,North,0,0.0,0.0,78,0.00,CLR,,0.00,0.0,WeatherDisplay:10.37,2013-05-17 07:41:00,
2013-05-17 03:46:00,46.3,40.5,29.86,North,0,0.0,0.0,80,0.00,CLR,,0.00,0.0,WeatherDisplay:10.37,2013-05-17 07:46:00,
2013-05-17 03:51:00,46.1,40.3,29.86,North,0,0.0,0.0,80,0.00,CLR,,0.00,0.0,WeatherDisplay:10.37,2013-05-17 07:51:00,
2013-05-17 03:56:00,45.9,40.1,29.86,North,0,0.0,0.0,80,0.00,CLR,,0.00,0.0,WeatherDisplay:10.37,2013-05-17 07:56:00,
2013-05-17 04:01:00,45.7,40.2,29.87,North,0,0.0,0.0,81,0.00,CLR,,0.00,0.0,WeatherDisplay:10.37,2013-05-17 08:01:00,
2013-05-17 04:06:00,45.4,39.9,29.87,North,0,0.0,0.0,81,0.00,CLR,,0.00,0.0,WeatherDisplay:10.37,2013-05-17 08:06:00,
2013-05-17 04:11:00,45.2,40.0,29.87,North,0,0.0,0.0,82,0.00,CLR,,0.00,0.0,WeatherDisplay:10.37,2013-05-17 08:11:00,
2013-05-17 04:16:00,45.1,39.9,29.87,North,0,0.0,0.0,82,0.00,CLR,,0.00,0.0,WeatherDisplay:10.37,2013-05-17 08:16:00,
2013-05-17 04:21:00,44.9,39.7,29.87,North,0,0.0,0.0,82,0.00,CLR,,0.00,0.0,WeatherDisplay:10.37,2013-05-17 08:21:00,
2013-05-17 04:26:00,44.7,39.5,29.87,North,0,0.0,0.0,82,0.00,CLR,,0.00,0.0,WeatherDisplay:10.37,2013-05-17 08:26:00,
2013-05-17 04:31:00,44.5,39.7,29.87,North,0,0.0,0.0,83,0.00,CLR,,0.00,0.0,WeatherDisplay:10.37,2013-05-17 08:31:00,
2013-05-17 04:36:00,44.3,39.5,29.87,North,0,0.0,0.0,83,0.00,CLR,,0.00,0.0,WeatherDisplay:10.37,2013-05-17 08:36:00,
2013-05-17 04:41:00,44.2,39.4,29.87,North,0,0.0,0.0,83,0.00,CLR,,0.00,0.0,WeatherDisplay:10.37,2013-05-17 08:41:00,
2013-05-17 04:46:00,44.2,39.7,29.87,North,0,0.0,0.0,84,0.00,CLR,,0.00,0.0,WeatherDisplay:10.37,2013-05-17 08:46:00,
2013-05-17 04:51:00,44.2,39.7,29.88,North,0,0.0,0.0,84,0.00,CLR,,0.00,0.0,WeatherDisplay:10.37,2013-05-17 08:51:00,
2013-05-17 04:56:00,44.2,39.4,29.88,North,0,0.0,0.0,83,0.00,CLR,,0.00,0.0,WeatherDisplay:10.37,2013-05-17 08:56:00,
2013-05-17 05:01:00,44.4,39.6,29.88,North,0,0.0,0.0,83,0.00,CLR,,0.00,0.0,WeatherDisplay:10.37,2013-05-17 09:01:00,
2013-05-17 05:06:00,44.6,39.4,29.88,North,0,0.0,0.0,82,0.00,CLR,,0.00,0.0,WeatherDisplay:10.37,2013-05-17 09:06:00,
2013-05-17 05:11:00,44.9,39.4,29.89,North,0,0.0,0.0,81,0.00,CLR,,0.00,0.0,WeatherDisplay:10.37,2013-05-17 09:11:00,
2013-05-17 05:16:00,45.1,39.6,29.88,North,0,0.0,0.0,81,0.00,CLR,,0.00,0.0,WeatherDisplay:10.37,2013-05-17 09:16:00,
2013-05-17 05:21:00,45.3,39.5,29.89,North,0,0.0,0.0,80,0.00,CLR,,0.00,0.0,WeatherDisplay:10.37,2013-05-17 09:21:00,
2013-05-17 05:26:00,45.5,39.4,29.89,North,0,0.0,0.0,79,0.00,CLR,,0.00,0.0,WeatherDisplay:10.37,2013-05-17 09:26:00,
2013-05-17 05:31:00,45.6,39.1,29.90,North,0,0.0,0.0,78,0.00,CLR,,0.00,5.0,WeatherDisplay:10.37,2013-05-17 09:31:00,
2013-05-17 05:36:00,45.7,39.2,29.90,North,0,0.0,0.0,78,0.00,CLR,,0.00,5.0,WeatherDisplay:10.37,2013-05-17 09:36:00,
2013-05-17 05:41:00,45.7,39.2,29.91,North,0,0.0,0.0,78,0.00,CLR,,0.00,7.0,WeatherDisplay:10.37,2013-05-17 09:41:00,
2013-05-17 05:46:00,45.7,39.2,29.91,North,0,0.0,0.0,78,0.00,CLR,,0.00,9.0,WeatherDisplay:10.37,2013-05-17 09:46:00,
2013-05-17 05:51:00,45.7,39.2,29.91,North,0,0.0,0.0,78,0.00,CLR,,0.00,11.0,WeatherDisplay:10.37,2013-05-17 09:51:00,
2013-05-17 05:56:00,45.6,39.1,29.92,North,0,0.0,0.0,78,0.00,CLR,,0.00,14.0,WeatherDisplay:10.37,2013-05-17 09:56:00,
2013-05-17 06:01:00,45.6,39.1,29.92,North,0,0.0,0.0,78,0.00,CLR,,0.00,12.0,WeatherDisplay:10.37,2013-05-17 10:01:00,
2013-05-17 06:06:00,45.5,39.0,29.93,North,0,0.0,0.0,78,0.00,CLR,,0.00,12.0,WeatherDisplay:10.37,2013-05-17 10:06:00,
2013-05-17 06:11:00,45.4,38.9,29.93,North,0,0.0,0.0,78,0.00,CLR,,0.00,25.0,WeatherDisplay:10.37,2013-05-17 10:11:00,
2013-05-17 06:16:00,45.4,39.3,29.94,North,0,0.0,0.0,79,0.00,CLR,,0.00,47.0,WeatherDisplay:10.37,2013-05-17 10:16:00,
2013-05-17 06:21:00,45.3,39.2,29.94,North,0,0.0,0.0,79,0.00,CLR,,0.00,33.0,WeatherDisplay:10.37,2013-05-17 10:21:00,
2013-05-17 06:26:00,45.4,39.3,29.94,North,0,0.0,0.0,79,0.00,CLR,,0.00,76.0,WeatherDisplay:10.37,2013-05-17 10:26:00,
2013-05-17 06:31:00,45.5,39.0,29.94,North,0,0.0,0.0,78,0.00,CLR,,0.00,30.0,WeatherDisplay:10.37,2013-05-17 10:31:00,
2013-05-17 06:36:00,45.5,39.0,29.95,North,0,0.0,0.0,78,0.00,CLR,,0.00,67.0,WeatherDisplay:10.37,2013-05-17 10:36:00,
2013-05-17 06:41:00,45.6,39.1,29.95,North,0,0.0,0.0,78,0.00,CLR,,0.00,37.0,WeatherDisplay:10.37,2013-05-17 10:41:00,
2013-05-17 06:46:00,45.7,38.9,29.95,North,0,0.0,0.0,77,0.00,CLR,,0.00,42.0,WeatherDisplay:10.37,2013-05-17 10:46:00,
2013-05-17 06:51:00,45.8,39.0,29.96,North,0,0.0,0.0,77,0.00,CLR,,0.00,98.0,WeatherDisplay:10.37,2013-05-17 10:51:00,
2013-05-17 06:56:00,45.9,39.1,29.96,North,0,0.0,0.0,77,0.00,CLR,,0.00,51.0,WeatherDisplay:10.37,2013-05-17 10:56:00,
2013-05-17 07:01:00,46.0,38.9,29.96,North,0,0.0,0.0,76,0.00,OVC,,0.00,121.0,WeatherDisplay:10.37,2013-05-17 11:01:00,
2013-05-17 07:06:00,46.1,39.3,29.96,North,0,0.0,0.0,77,0.00,OVC,,0.00,95.0,WeatherDisplay:10.37,2013-05-17 11:06:00,
2013-05-17 07:11:00,46.2,39.1,29.96,North,0,0.0,0.0,76,0.00,OVC,,0.00,135.0,WeatherDisplay:10.37,2013-05-17 11:11:00,
2013-05-17 07:16:00,46.3,39.1,29.97,North,0,0.0,0.0,76,0.00,OVC,,0.00,123.0,WeatherDisplay:10.37,2013-05-17 11:16:00,
2013-05-17 07:21:00,46.4,39.2,29.97,North,0,0.0,0.0,76,0.00,OVC,,0.00,142.0,WeatherDisplay:10.37,2013-05-17 11:21:00,
2013-05-17 07:26:00,46.5,39.0,29.97,North,0,0.0,0.0,75,0.00,OVC,,0.00,113.0,WeatherDisplay:10.37,2013-05-17 11:26:00,
2013-05-17 07:31:00,46.6,38.8,29.98,North,0,0.0,0.0,74,0.00,OVC,,0.00,144.0,WeatherDisplay:10.37,2013-05-17 11:31:00,
2013-05-17 07:36:00,46.7,38.9,29.98,North,0,0.0,0.0,74,0.00,OVC,,0.00,202.0,WeatherDisplay:10.37,2013-05-17 11:36:00,
2013-05-17 07:41:00,46.9,38.7,29.98,North,0,0.0,0.0,73,0.00,OVC,,0.00,141.0,WeatherDisplay:10.37,2013-05-17 11:41:00,
2013-05-17 07:46:00,47.0,39.1,29.97,North,0,0.0,0.0,74,0.00,OVC,,0.00,100.0,WeatherDisplay:10.37,2013-05-17 11:46:00,
2013-05-17 07:51:00,47.2,39.3,29.97,North,0,0.0,0.0,74,0.00,OVC,,0.00,267.0,WeatherDisplay:10.37,2013-05-17 11:51:00,
2013-05-17 07:56:00,47.4,39.5,29.97,North,0,0.0,0.0,74,0.00,OVC,,0.00,279.0,WeatherDisplay:10.37,2013-05-17 11:56:00,
2013-05-17 08:01:00,47.7,39.5,29.98,North,0,0.0,0.0,73,0.00,OVC,,0.00,287.0,WeatherDisplay:10.37,2013-05-17 12:01:00,
2013-05-17 08:06:00,48.0,39.4,29.98,North,0,0.0,0.0,72,0.00,OVC,,0.00,413.0,WeatherDisplay:10.37,2013-05-17 12:06:00,
2013-05-17 08:11:00,48.3,39.3,29.98,North,0,0.0,0.0,71,0.00,OVC,,0.00,362.0,WeatherDisplay:10.37,2013-05-17 12:11:00,
2013-05-17 08:16:00,48.7,39.7,29.98,North,0,0.0,0.0,71,0.00,OVC,,0.00,371.0,WeatherDisplay:10.37,2013-05-17 12:16:00,
2013-05-17 08:21:00,49.0,39.6,29.98,North,0,0.0,0.0,70,0.00,OVC,,0.00,369.0,WeatherDisplay:10.37,2013-05-17 12:21:00,
2013-05-17 08:26:00,49.3,39.9,29.98,North,0,0.0,0.0,70,0.00,OVC,,0.00,464.0,WeatherDisplay:10.37,2013-05-17 12:26:00,
2013-05-17 08:31:00,49.8,40.8,29.98,North,0,0.0,0.0,71,0.00,OVC,,0.00,434.0,WeatherDisplay:10.37,2013-05-17 12:31:00,
2013-05-17 08:36:00,50.2,40.4,29.98,North,0,0.0,0.0,69,0.00,OVC,,0.00,527.0,WeatherDisplay:10.37,2013-05-17 12:36:00,
2013-05-17 08:41:00,50.8,41.0,29.99,North,0,0.0,0.0,69,0.00,OVC,,0.00,548.0,WeatherDisplay:10.37,2013-05-17 12:41:00,
2013-05-17 08:46:00,51.3,40.3,29.99,North,0,0.0,0.0,66,0.00,OVC,,0.00,591.0,WeatherDisplay:10.37,2013-05-17 12:46:00,
2013-05-17 08:51:00,51.7,40.7,29.99,North,0,0.0,0.0,66,0.00,OVC,,0.00,603.0,WeatherDisplay:10.37,2013-05-17 12:51:00,
2013-05-17 08:56:00,52.1,40.7,29.99,North,0,0.0,0.0,65,0.00,OVC,,0.00,603.0,WeatherDisplay:10.37,2013-05-17 12:56:00,
2013-05-17 09:01:00,52.5,41.1,29.99,North,0,0.0,0.0,65,0.00,OVC,,0.00,626.0,WeatherDisplay:10.37,2013-05-17 13:01:00,
2013-05-17 09:06:00,52.9,41.0,29.99,North,0,0.0,0.0,64,0.00,OVC,,0.00,642.0,WeatherDisplay:10.37,2013-05-17 13:06:00,
2013-05-17 09:11:00,53.3,41.4,29.99,North,0,0.0,0.0,64,0.00,OVC,,0.00,621.0,WeatherDisplay:10.37,2013-05-17 13:11:00,
2013-05-17 09:16:00,53.6,41.3,29.99,North,0,0.0,0.0,63,0.00,OVC,,0.00,677.0,WeatherDisplay:10.37,2013-05-17 13:16:00,
2013-05-17 09:21:00,53.8,41.9,29.99,North,0,0.0,0.0,64,0.00,OVC,,0.00,605.0,WeatherDisplay:10.37,2013-05-17 13:21:00,
2013-05-17 09:26:00,53.8,41.1,29.99,North,0,0.0,0.0,62,0.00,OVC,,0.00,686.0,WeatherDisplay:10.37,2013-05-17 13:26:00,
2013-05-17 09:31:00,54.0,41.7,29.99,North,0,0.0,0.0,63,0.00,OVC,,0.00,726.0,WeatherDisplay:10.37,2013-05-17 13:31:00,
2013-05-17 09:36:00,54.2,41.5,29.99,North,0,0.0,0.0,62,0.00,OVC,,0.00,779.0,WeatherDisplay:10.37,2013-05-17 13:36:00,
2013-05-17 09:41:00,54.5,41.3,29.99,North,0,0.0,0.0,61,0.00,OVC,,0.00,714.0,WeatherDisplay:10.37,2013-05-17 13:41:00,
2013-05-17 09:46:00,54.8,41.6,29.99,North,0,0.0,0.0,61,0.00,OVC,,0.00,773.0,WeatherDisplay:10.37,2013-05-17 13:46:00,
2013-05-17 09:51:00,55.0,41.4,29.99,North,0,0.0,0.0,60,0.00,OVC,,0.00,765.0,WeatherDisplay:10.37,2013-05-17 13:51:00,
2013-05-17 09:56:00,55.4,42.2,29.99,North,0,0.0,0.0,61,0.00,OVC,,0.00,793.0,WeatherDisplay:10.37,2013-05-17 13:56:00,
2013-05-17 10:01:00,55.9,41.8,29.99,North,0,0.0,0.0,59,0.00,OVC,,0.00,817.0,WeatherDisplay:10.37,2013-05-17 14:01:00,
2013-05-17 10:06:00,56.2,42.1,29.99,North,0,0.0,0.0,59,0.00,OVC,,0.00,793.0,WeatherDisplay:10.37,2013-05-17 14:06:00,
2013-05-17 10:11:00,56.7,42.5,29.99,North,0,0.0,0.0,59,0.00,OVC,,0.00,895.0,WeatherDisplay:10.37,2013-05-17 14:11:00,
2013-05-17 10:16:00,56.9,41.8,30.00,North,0,0.0,0.0,57,0.00,OVC,,0.00,904.0,WeatherDisplay:10.37,2013-05-17 14:16:00,
2013-05-17 10:21:00,56.7,41.6,30.00,North,0,0.0,0.0,57,0.00,OVC,,0.00,962.0,WeatherDisplay:10.37,2013-05-17 14:21:00,
2013-05-17 10:26:00,56.7,41.6,30.00,North,0,0.0,0.0,57,0.00,CLR,,0.00,884.0,WeatherDisplay:10.37,2013-05-17 14:26:00,
2013-05-17 10:31:00,56.7,42.1,30.00,WNW,286,15.0,15.0,58,0.00,CLR,,0.00,925.0,WeatherDisplay:10.37,2013-05-17 14:31:00,
2013-05-17 10:36:00,56.6,41.5,30.00,NNW,343,6.0,6.0,57,0.00,CLR,,0.00,1114.0,WeatherDisplay:10.37,2013-05-17 14:36:00,
2013-05-17 10:41:00,56.8,42.2,30.00,East,99,5.8,5.8,58,0.00,CLR,,0.00,279.0,WeatherDisplay:10.37,2013-05-17 14:41:00,
2013-05-17 10:46:00,57.3,44.0,30.00,NNW,327,5.8,5.8,61,0.00,CLR,,0.00,279.0,WeatherDisplay:10.37,2013-05-17 14:46:00,
2013-05-17 10:51:00,57.7,43.5,30.01,WSW,238,12.7,12.7,59,0.00,CLR,,0.00,847.0,WeatherDisplay:10.37,2013-05-17 14:51:00,
2013-05-17 10:56:00,57.8,42.7,30.01,NNW,334,3.5,3.5,57,0.00,CLR,,0.00,902.0,WeatherDisplay:10.37,2013-05-17 14:56:00,
2013-05-17 11:01:00,57.8,43.1,30.01,NE,56,4.0,4.0,58,0.00,CLR,,0.00,902.0,WeatherDisplay:10.37,2013-05-17 15:01:00,
2013-05-17 11:06:00,57.7,41.6,30.01,NNW,327,6.9,6.9,55,0.00,CLR,,0.00,160.0,WeatherDisplay:10.37,2013-05-17 15:06:00,
2013-05-17 11:11:00,57.4,42.7,30.01,NW,307,9.2,9.2,58,0.00,CLR,,0.00,322.0,WeatherDisplay:10.37,2013-05-17 15:11:00,
2013-05-17 11:16:00,57.4,42.7,30.02,WNW,288,5.8,5.8,58,0.00,CLR,,0.00,223.0,WeatherDisplay:10.37,2013-05-17 15:16:00,
2013-05-17 11:21:00,57.2,42.1,30.02,NNE,21,3.5,3.5,57,0.00,CLR,,0.00,211.0,WeatherDisplay:10.37,2013-05-17 15:21:00,
2013-05-17 11:26:00,57.0,41.9,30.02,ENE,74,3.5,3.5,57,0.00,CLR,,0.00,188.0,WeatherDisplay:10.37,2013-05-17 15:26:00,
2013-05-17 11:31:00,57.2,42.1,30.02,ENE,71,2.3,2.3,57,0.00,CLR,,0.00,974.0,WeatherDisplay:10.37,2013-05-17 15:31:00,
2013-05-17 11:36:00,57.5,41.0,30.02,NNW,344,14.0,14.0,54,0.00,CLR,,0.00,972.0,WeatherDisplay:10.37,2013-05-17 15:36:00,
2013-05-17 11:41:00,57.7,41.6,30.02,NW,310,7.0,7.0,55,0.00,CLR,,0.00,1025.0,WeatherDisplay:10.37,2013-05-17 15:41:00,
2013-05-17 11:46:00,58.1,43.4,30.02,NNW,339,4.6,4.6,58,0.00,CLR,,0.00,979.0,WeatherDisplay:10.37,2013-05-17 15:46:00,
2013-05-17 11:51:00,58.4,42.3,30.02,NNW,336,4.6,4.6,55,0.00,CLR,,0.00,1016.0,WeatherDisplay:10.37,2013-05-17 15:51:00,
2013-05-17 11:56:00,58.4,41.8,30.02,North,355,4.6,4.6,54,0.00,CLR,,0.00,1120.0,WeatherDisplay:10.37,2013-05-17 15:56:00,
2013-05-17 12:01:00,58.4,41.3,30.02,NNE,17,7.0,7.0,53,0.00,CLR,,0.00,1028.0,WeatherDisplay:10.37,2013-05-17 16:01:00,
2013-05-17 12:06:00,58.7,41.6,30.02,NNE,27,4.6,4.6,53,0.00,CLR,,0.00,958.0,WeatherDisplay:10.37,2013-05-17 16:06:00,
2013-05-17 12:11:00,59.1,42.0,30.01,NNW,346,3.5,3.5,53,0.00,CLR,,0.00,963.0,WeatherDisplay:10.37,2013-05-17 16:11:00,
2013-05-17 12:16:00,59.4,41.8,30.01,NNW,329,1.2,1.2,52,0.00,CLR,,0.00,983.0,WeatherDisplay:10.37,2013-05-17 16:16:00,
2013-05-17 12:21:00,59.7,42.0,30.01,NW,321,12.7,12.7,52,0.00,CLR,,0.00,1014.0,WeatherDisplay:10.37,2013-05-17 16:21:00,
2013-05-17 12:26:00,59.8,41.6,30.02,WSW,253,4.6,4.6,51,0.00,CLR,,0.00,1007.0,WeatherDisplay:10.37,2013-05-17 16:26:00,
2013-05-17 12:31:00,60.1,42.4,30.02,North,355,10.4,10.4,52,0.00,CLR,,0.00,988.0,WeatherDisplay:10.37,2013-05-17 16:31:00,
2013-05-17 12:36:00,60.4,41.7,30.01,West,277,5.8,5.8,50,0.00,CLR,,0.00,988.0,WeatherDisplay:10.37,2013-05-17 16:36:00,
2013-05-17 12:41:00,60.6,41.8,30.01,NE,51,3.5,3.5,50,0.00,CLR,,0.00,972.0,WeatherDisplay:10.37,2013-05-17 16:41:00,
2013-05-17 12:46:00,60.7,42.5,30.01,NNW,343,11.5,11.5,51,0.00,CLR,,0.00,986.0,WeatherDisplay:10.37,2013-05-17 16:46:00,
2013-05-17 12:51:00,60.8,43.6,30.01,North,350,5.0,5.0,53,0.00,CLR,,0.00,967.0,WeatherDisplay:10.37,2013-05-17 16:51:00,
2013-05-17 12:56:00,61.3,44.5,30.01,North,355,9.2,9.2,54,0.00,CLR,,0.00,976.0,WeatherDisplay:10.37,2013-05-17 16:56:00,
2013-05-17 13:01:00,61.7,43.4,30.01,NNW,327,9.2,9.2,51,0.00,CLR,,0.00,979.0,WeatherDisplay:10.37,2013-05-17 17:01:00,
2013-05-17 13:06:00,62.1,42.2,30.01,NNW,345,11.5,11.5,48,0.00,CLR,,0.00,984.0,WeatherDisplay:10.37,2013-05-17 17:06:00,
2013-05-17 13:11:00,62.2,41.2,30.02,SE,140,6.9,6.9,46,0.00,CLR,,0.00,970.0,WeatherDisplay:10.37,2013-05-17 17:11:00,
2013-05-17 13:16:00,62.3,42.9,30.02,NNE,13,9.2,9.2,49,0.00,CLR,,0.00,965.0,WeatherDisplay:10.37,2013-05-17 17:16:00,
2013-05-17 13:21:00,62.5,42.5,30.02,North,351,5.8,5.8,48,0.00,CLR,,0.00,963.0,WeatherDisplay:10.37,2013-05-17 17:21:00,
2013-05-17 13:26:00,62.6,42.1,30.02,North,350,5.8,5.8,47,0.00,CLR,,0.00,956.0,WeatherDisplay:10.37,2013-05-17 17:26:00,
2013-05-17 13:31:00,62.6,43.2,30.01,NNE,22,4.6,4.6,49,0.00,CLR,,0.00,949.0,WeatherDisplay:10.37,2013-05-17 17:31:00,
2013-05-17 13:36:00,63.0,43.5,30.02,NW,308,11.5,11.5,49,0.00,CLR,,0.00,942.0,WeatherDisplay:10.37,2013-05-17 17:36:00,
2013-05-17 13:41:00,63.1,42.0,30.02,NE,47,9.2,9.2,46,0.00,CLR,,0.00,939.0,WeatherDisplay:10.37,2013-05-17 17:41:00,
2013-05-17 13:46:00,63.4,43.4,30.02,North,5,4.6,4.6,48,0.00,CLR,,0.00,979.0,WeatherDisplay:10.37,2013-05-17 17:46:00,
2013-05-17 13:51:00,63.4,41.7,30.02,NE,46,3.5,3.5,45,0.00,CLR,,0.00,998.0,WeatherDisplay:10.37,2013-05-17 17:51:00,
2013-05-17 13:56:00,63.3,42.2,30.02,West,273,11.5,11.5,46,0.00,SCT,,0.00,355.0,WeatherDisplay:10.37,2013-05-17 17:56:00,
2013-05-17 14:01:00,63.2,43.2,30.02,North,355,3.0,3.0,48,0.00,CLR,,0.00,1134.0,WeatherDisplay:10.37,2013-05-17 18:01:00,
2013-05-17 14:06:00,63.6,43.0,30.02,WNW,300,11.5,11.5,47,0.00,SCT,,0.00,385.0,WeatherDisplay:10.37,2013-05-17 18:06:00,
2013-05-17 14:11:00,63.7,40.8,30.02,NNW,328,9.2,9.2,43,0.00,SCT,,0.00,459.0,WeatherDisplay:10.37,2013-05-17 18:11:00,
2013-05-17 14:16:00,63.9,41.5,30.02,NW,326,13.8,13.8,44,0.00,CLR,,0.00,953.0,WeatherDisplay:10.37,2013-05-17 18:16:00,
2013-05-17 14:21:00,64.2,41.2,30.02,North,10,9.2,9.2,43,0.00,CLR,,0.00,979.0,WeatherDisplay:10.37,2013-05-17 18:21:00,
2013-05-17 14:26:00,64.6,42.8,30.02,NE,48,4.6,4.6,45,0.00,CLR,,0.00,1072.0,WeatherDisplay:10.37,2013-05-17 18:26:00,
2013-05-17 14:31:00,65.1,40.8,30.03,NNE,31,9.2,9.2,41,0.00,CLR,,0.00,874.0,WeatherDisplay:10.37,2013-05-17 18:31:00,
2013-05-17 14:36:00,65.7,43.8,30.03,NW,304,3.5,3.5,45,0.00,CLR,,0.00,946.0,WeatherDisplay:10.37,2013-05-17 18:36:00,
2013-05-17 14:41:00,65.7,42.0,30.03,ENE,76,16.1,16.1,42,0.00,BKN,,0.00,322.0,WeatherDisplay:10.37,2013-05-17 18:41:00,
2013-05-17 14:46:00,65.5,43.0,30.03,East,85,6.9,6.9,44,0.00,CLR,,0.00,995.0,WeatherDisplay:10.37,2013-05-17 18:46:00,
2013-05-17 14:51:00,64.9,41.2,30.03,NW,306,4.6,4.6,42,0.00,BKN,,0.00,178.0,WeatherDisplay:10.37,2013-05-17 18:51:00,
2013-05-17 14:56:00,65.0,44.3,30.03,WNW,298,3.5,3.5,47,0.00,CLR,,0.00,951.0,WeatherDisplay:10.37,2013-05-17 18:56:00,
2013-05-17 15:01:00,65.1,41.4,30.03,NE,49,4.0,4.0,42,0.00,BKN,,0.00,244.0,WeatherDisplay:10.37,2013-05-17 19:01:00,
2013-05-17 15:06:00,64.8,41.2,30.03,ENE,59,5.8,5.8,42,0.00,BKN,,0.00,149.0,WeatherDisplay:10.37,2013-05-17 19:06:00,
2013-05-17 15:11:00,64.5,40.9,30.03,WNW,292,3.5,3.5,42,0.00,BKN,,0.00,178.0,WeatherDisplay:10.37,2013-05-17 19:11:00,
2013-05-17 15:16:00,64.2,40.6,30.03,NW,321,5.8,5.8,42,0.00,BKN,,0.00,176.0,WeatherDisplay:10.37,2013-05-17 19:16:00,
2013-05-17 15:21:00,64.2,41.2,30.03,NNW,345,3.5,3.5,43,0.00,FEW,,0.00,814.0,WeatherDisplay:10.37,2013-05-17 19:21:00,
2013-05-17 15:26:00,64.5,42.1,30.03,WNW,294,3.5,3.5,44,0.00,FEW,,0.00,791.0,WeatherDisplay:10.37,2013-05-17 19:26:00,
2013-05-17 15:31:00,65.0,40.1,30.03,WNW,303,3.5,3.5,40,0.00,FEW,,0.00,784.0,WeatherDisplay:10.37,2013-05-17 19:31:00,
2013-05-17 15:36:00,65.5,40.5,30.03,NNW,345,15.0,15.0,40,0.00,FEW,,0.00,768.0,WeatherDisplay:10.37,2013-05-17 19:36:00,
2013-05-17 15:41:00,66.0,40.3,30.03,NW,321,11.5,11.5,39,0.00,FEW,,0.00,788.0,WeatherDisplay:10.37,2013-05-17 19:41:00,
2013-05-17 15:46:00,66.5,42.1,30.03,WNW,302,2.3,2.3,41,0.00,FEW,,0.00,759.0,WeatherDisplay:10.37,2013-05-17 19:46:00,
2013-05-17 15:51:00,67.0,40.5,30.03,NW,325,9.2,9.2,38,0.00,FEW,,0.00,737.0,WeatherDisplay:10.37,2013-05-17 19:51:00,
2013-05-17 15:56:00,67.1,39.9,30.03,North,5,1.2,1.2,37,0.00,FEW,,0.00,714.0,WeatherDisplay:10.37,2013-05-17 19:56:00,
2013-05-17 16:01:00,67.3,41.5,30.04,WNW,294,5.8,5.8,39,0.00,FEW,,0.00,729.0,WeatherDisplay:10.37,2013-05-17 20:01:00,
2013-05-17 16:06:00,67.4,40.9,30.04,NW,305,12.7,12.7,38,0.00,FEW,,0.00,722.0,WeatherDisplay:10.37,2013-05-17 20:06:00,
2013-05-17 16:11:00,67.6,41.7,30.04,NE,40,9.2,9.2,39,0.00,FEW,,0.00,721.0,WeatherDisplay:10.37,2013-05-17 20:11:00,
2013-05-17 16:16:00,67.7,40.5,30.04,NNW,334,2.3,2.3,37,0.00,SCT,,0.00,701.0,WeatherDisplay:10.37,2013-05-17 20:16:00,
2013-05-17 16:21:00,67.4,39.5,30.04,West,278,9.2,9.2,36,0.00,SCT,,0.00,643.0,WeatherDisplay:10.37,2013-05-17 20:21:00,
2013-05-17 16:26:00,67.2,40.0,30.04,ESE,117,10.4,10.4,37,0.00,SCT,,0.00,700.0,WeatherDisplay:10.37,2013-05-17 20:26:00,
2013-05-17 16:31:00,67.1,39.9,30.04,NNE,20,2.0,2.0,37,0.00,SCT,,0.00,715.0,WeatherDisplay:10.37,2013-05-17 20:31:00,
2013-05-17 16:36:00,67.2,40.7,30.05,NW,318,4.6,4.6,38,0.00,SCT,,0.00,148.0,WeatherDisplay:10.37,2013-05-17 20:36:00,
2013-05-17 16:41:00,66.8,39.0,30.05,North,350,3.5,3.5,36,0.00,BKN,,0.00,79.0,WeatherDisplay:10.37,2013-05-17 20:41:00,
2013-05-17 16:46:00,66.2,39.8,30.05,WNW,299,5.8,5.8,38,0.00,BKN,,0.00,339.0,WeatherDisplay:10.37,2013-05-17 20:46:00,
2013-05-17 16:51:00,65.8,39.5,30.05,NW,305,1.2,1.2,38,0.00,BKN,,0.00,492.0,WeatherDisplay:10.37,2013-05-17 20:51:00,
2013-05-17 16:56:00,65.5,38.5,30.06,NW,316,5.8,5.8,37,0.00,BKN,,0.00,179.0,WeatherDisplay:10.37,2013-05-17 20:56:00,
2013-05-17 17:01:00,65.3,38.3,30.06,North,11,9.2,9.2,37,0.00,BKN,,0.00,174.0,WeatherDisplay:10.37,2013-05-17 21:01:00,
2013-05-17 17:06:00,65.1,38.8,30.06,NNW,346,1.0,0.0,38,0.00,BKN,,0.00,139.0,WeatherDisplay:10.37,2013-05-17 21:06:00,
2013-05-17 17:11:00,65.1,39.5,30.06,NW,321,3.0,3.0,39,0.00,BKN,,0.00,141.0,WeatherDisplay:10.37,2013-05-17 21:11:00,
2013-05-17 17:16:00,64.9,39.3,30.06,North,360,4.6,4.6,39,0.00,BKN,,0.00,105.0,WeatherDisplay:10.37,2013-05-17 21:16:00,
2013-05-17 17:21:00,64.6,39.1,30.07,NNW,336,7.0,7.0,39,0.00,OVC,,0.00,67.0,WeatherDisplay:10.37,2013-05-17 21:21:00,
2013-05-17 17:26:00,64.2,38.7,30.07,NW,314,4.6,4.6,39,0.00,OVC,,0.00,30.0,WeatherDisplay:10.37,2013-05-17 21:26:00,
2013-05-17 17:31:00,63.7,38.3,30.07,ESE,117,3.5,3.5,39,0.00,OVC,,0.00,37.0,WeatherDisplay:10.37,2013-05-17 21:31:00,
2013-05-17 17:36:00,63.3,38.6,30.07,NNW,339,3.5,3.5,40,0.00,OVC,,0.00,46.0,WeatherDisplay:10.37,2013-05-17 21:36:00,
2013-05-17 17:41:00,62.8,38.1,30.07,SW,229,1.2,0.0,40,0.00,OVC,,0.00,60.0,WeatherDisplay:10.37,2013-05-17 21:41:00,
2013-05-17 17:46:00,62.5,37.8,30.07,NNW,348,1.2,1.2,40,0.00,OVC,,0.00,42.0,WeatherDisplay:10.37,2013-05-17 21:46:00,
2013-05-17 17:51:00,62.2,38.2,30.07,NNW,329,6.9,6.9,41,0.00,OVC,,0.00,40.0,WeatherDisplay:10.37,2013-05-17 21:51:00,
2013-05-17 17:56:00,62.0,38.0,30.08,WNW,301,3.5,3.5,41,0.00,OVC,,0.00,37.0,WeatherDisplay:10.37,2013-05-17 21:56:00,
2013-05-17 18:01:00,61.9,37.9,30.08,WNW,298,3.5,3.5,41,0.00,OVC,,0.00,35.0,WeatherDisplay:10.37,2013-05-17 22:01:00,
2013-05-17 18:06:00,61.8,37.8,30.08,NE,43,1.2,0.0,41,0.00,OVC,,0.00,40.0,WeatherDisplay:10.37,2013-05-17 22:06:00,
2013-05-17 18:11:00,61.7,37.7,30.08,West,273,1.2,1.2,41,0.00,OVC,,0.00,32.0,WeatherDisplay:10.37,2013-05-17 22:11:00,
2013-05-17 18:16:00,61.7,37.1,30.08,WNW,297,1.2,1.2,40,0.00,OVC,,0.00,30.0,WeatherDisplay:10.37,2013-05-17 22:16:00,
2013-05-17 18:21:00,61.6,37.0,30.08,WNW,298,2.3,2.3,40,0.00,OVC,,0.00,30.0,WeatherDisplay:10.37,2013-05-17 22:21:00,
2013-05-17 18:26:00,61.6,37.0,30.08,NE,47,3.5,3.5,40,0.00,OVC,,0.00,28.0,WeatherDisplay:10.37,2013-05-17 22:26:00,
2013-05-17 18:31:00,61.5,36.9,30.09,ENE,58,4.6,4.6,40,0.00,OVC,,0.00,28.0,WeatherDisplay:10.37,2013-05-17 22:31:00,
2013-05-17 18:36:00,61.5,37.6,30.09,WNW,296,1.2,1.2,41,0.00,OVC,,0.00,26.0,WeatherDisplay:10.37,2013-05-17 22:36:00,
2013-05-17 18:41:00,61.4,36.8,30.09,NW,308,1.2,0.0,40,0.00,OVC,,0.00,25.0,WeatherDisplay:10.37,2013-05-17 22:41:00,
2013-05-17 18:46:00,61.3,36.8,30.09,NW,312,2.3,2.3,40,0.00,OVC,,0.00,23.0,WeatherDisplay:10.37,2013-05-17 22:46:00,
2013-05-17 18:51:00,61.2,37.3,30.09,WNW,303,1.2,1.2,41,0.00,OVC,,0.00,21.0,WeatherDisplay:10.37,2013-05-17 22:51:00,
2013-05-17 18:56:00,61.0,36.5,30.09,West,277,3.5,3.5,40,0.00,OVC,,0.00,21.0,WeatherDisplay:10.37,2013-05-17 22:56:00,
2013-05-17 19:01:00,60.9,37.0,30.10,West,281,0.0,0.0,41,0.00,CLR,,0.00,19.0,WeatherDisplay:10.37,2013-05-17 23:01:00,
2013-05-17 19:06:00,60.7,36.8,30.10,West,281,0.0,0.0,41,0.00,CLR,,0.00,18.0,WeatherDisplay:10.37,2013-05-17 23:06:00,
2013-05-17 19:11:00,60.6,37.4,30.10,NNE,12,0.0,0.0,42,0.00,CLR,,0.00,16.0,WeatherDisplay:10.37,2013-05-17 23:11:00,
2013-05-17 19:16:00,60.4,37.8,30.10,North,0,0.0,0.0,43,0.00,CLR,,0.00,14.0,WeatherDisplay:10.37,2013-05-17 23:16:00,
2013-05-17 19:21:00,60.1,38.1,30.10,North,0,0.0,0.0,44,0.00,CLR,,0.00,14.0,WeatherDisplay:10.37,2013-05-17 23:21:00,
2013-05-17 19:26:00,59.9,37.9,30.11,North,0,0.0,0.0,44,0.00,CLR,,0.00,12.0,WeatherDisplay:10.37,2013-05-17 23:26:00,
2013-05-17 19:31:00,59.6,37.6,30.11,North,0,0.0,0.0,44,0.00,CLR,,0.00,11.0,WeatherDisplay:10.37,2013-05-17 23:31:00,
2013-05-17 19:36:00,59.4,36.9,30.11,North,0,0.0,0.0,43,0.00,CLR,,0.00,11.0,WeatherDisplay:10.37,2013-05-17 23:36:00,
2013-05-17 19:41:00,59.1,37.2,30.11,North,0,0.0,0.0,44,0.00,CLR,,0.00,9.0,WeatherDisplay:10.37,2013-05-17 23:41:00,
2013-05-17 19:46:00,59.0,38.2,30.11,North,0,0.0,0.0,46,0.00,CLR,,0.00,7.0,WeatherDisplay:10.37,2013-05-17 23:46:00,
2013-05-17 19:51:00,58.6,37.9,30.12,North,0,0.0,0.0,46,0.00,CLR,,0.00,7.0,WeatherDisplay:10.37,2013-05-17 23:51:00,
2013-05-17 19:56:00,58.2,38.1,30.12,North,0,0.0,0.0,47,0.00,CLR,,0.00,5.0,WeatherDisplay:10.37,2013-05-17 23:56:00,
2013-05-17 20:01:00,57.8,38.2,30.12,North,0,0.0,0.0,48,0.00,CLR,,0.00,0.0,WeatherDisplay:10.37,2013-05-18 00:01:00,
2013-05-17 20:06:00,57.3,37.8,30.12,North,0,0.0,0.0,48,0.00,CLR,,0.00,0.0,WeatherDisplay:10.37,2013-05-18 00:06:00,
2013-05-17 20:11:00,56.9,37.9,30.13,North,0,0.0,0.0,49,0.00,CLR,,0.00,0.0,WeatherDisplay:10.37,2013-05-18 00:11:00,
2013-05-17 20:16:00,56.5,39.1,30.13,North,0,0.0,0.0,52,0.00,CLR,,0.00,0.0,WeatherDisplay:10.37,2013-05-18 00:16:00,
2013-05-17 20:21:00,56.0,39.1,30.13,North,0,0.0,0.0,53,0.00,CLR,,0.00,0.0,WeatherDisplay:10.37,2013-05-18 00:21:00,
2013-05-17 20:26:00,55.5,39.1,30.13,North,0,0.0,0.0,54,0.00,CLR,,0.00,0.0,WeatherDisplay:10.37,2013-05-18 00:26:00,
2013-05-17 20:31:00,55.1,38.7,30.13,North,0,0.0,0.0,54,0.00,CLR,,0.00,0.0,WeatherDisplay:10.37,2013-05-18 00:31:00,
2013-05-17 20:36:00,54.5,38.2,30.14,North,0,0.0,0.0,54,0.00,CLR,,0.00,0.0,WeatherDisplay:10.37,2013-05-18 00:36:00,
2013-05-17 20:41:00,54.1,38.3,30.14,North,0,0.0,0.0,55,0.00,CLR,,0.00,0.0,WeatherDisplay:10.37,2013-05-18 00:41:00,
2013-05-17 20:46:00,53.6,38.3,30.14,North,0,0.0,0.0,56,0.00,CLR,,0.00,0.0,WeatherDisplay:10.37,2013-05-18 00:46:00,
2013-05-17 20:51:00,53.1,38.3,30.15,North,0,0.0,0.0,57,0.00,CLR,,0.00,0.0,WeatherDisplay:10.37,2013-05-18 00:51:00,
2013-05-17 20:56:00,52.6,38.2,30.15,North,0,0.0,0.0,58,0.00,CLR,,0.00,0.0,WeatherDisplay:10.37,2013-05-18 00:56:00,
2013-05-17 21:01:00,52.1,38.2,30.15,North,0,0.0,0.0,59,0.00,CLR,,0.00,0.0,WeatherDisplay:10.37,2013-05-18 01:01:00,
2013-05-17 21:06:00,51.6,37.7,30.15,North,0,0.0,0.0,59,0.00,CLR,,0.00,0.0,WeatherDisplay:10.37,2013-05-18 01:06:00,
2013-05-17 21:11:00,51.2,37.8,30.16,North,0,0.0,0.0,60,0.00,CLR,,0.00,0.0,WeatherDisplay:10.37,2013-05-18 01:11:00,
2013-05-17 21:16:00,50.7,37.3,30.16,North,0,0.0,0.0,60,0.00,CLR,,0.00,0.0,WeatherDisplay:10.37,2013-05-18 01:16:00,
2013-05-17 21:21:00,50.3,37.4,30.16,North,0,0.0,0.0,61,0.00,CLR,,0.00,0.0,WeatherDisplay:10.37,2013-05-18 01:21:00,
2013-05-17 21:26:00,50.0,37.9,30.16,North,0,0.0,0.0,63,0.00,CLR,,0.00,0.0,WeatherDisplay:10.37,2013-05-18 01:26:00,
2013-05-17 21:31:00,49.6,37.1,30.16,North,0,0.0,0.0,62,0.00,CLR,,0.00,0.0,WeatherDisplay:10.37,2013-05-18 01:31:00,
2013-05-17 21:36:00,49.4,37.3,30.17,North,0,0.0,0.0,63,0.00,CLR,,0.00,0.0,WeatherDisplay:10.37,2013-05-18 01:36:00,
2013-05-17 21:41:00,49.1,37.0,30.17,North,0,0.0,0.0,63,0.00,CLR,,0.00,0.0,WeatherDisplay:10.37,2013-05-18 01:41:00,
2013-05-17 21:46:00,48.9,36.9,30.17,North,0,0.0,0.0,63,0.00,CLR,,0.00,0.0,WeatherDisplay:10.37,2013-05-18 01:46:00,
2013-05-17 21:51:00,48.7,37.1,30.17,North,0,0.0,0.0,64,0.00,CLR,,0.00,0.0,WeatherDisplay:10.37,2013-05-18 01:51:00,
2013-05-17 21:56:00,48.5,37.3,30.17,North,0,0.0,0.0,65,0.00,CLR,,0.00,0.0,WeatherDisplay:10.37,2013-05-18 01:56:00,
2013-05-17 22:01:00,48.3,37.5,30.18,North,0,0.0,0.0,66,0.00,CLR,,0.00,0.0,WeatherDisplay:10.37,2013-05-18 02:01:00,
2013-05-17 22:06:00,48.0,36.8,30.18,North,0,0.0,0.0,65,0.00,CLR,,0.00,0.0,WeatherDisplay:10.37,2013-05-18 02:06:00,
2013-05-17 22:11:00,47.8,36.6,30.18,North,0,0.0,0.0,65,0.00,CLR,,0.00,0.0,WeatherDisplay:10.37,2013-05-18 02:11:00,
2013-05-17 22:16:00,47.7,36.9,30.18,North,0,0.0,0.0,66,0.00,CLR,,0.00,0.0,WeatherDisplay:10.37,2013-05-18 02:16:00,
2013-05-17 22:21:00,47.5,37.1,30.18,North,0,0.0,0.0,67,0.00,CLR,,0.00,0.0,WeatherDisplay:10.37,2013-05-18 02:21:00,
2013-05-17 22:26:00,47.3,37.3,30.18,North,0,0.0,0.0,68,0.00,CLR,,0.00,0.0,WeatherDisplay:10.37,2013-05-18 02:26:00,
2013-05-17 22:31:00,47.2,37.2,30.18,North,0,0.0,0.0,68,0.00,CLR,,0.00,0.0,WeatherDisplay:10.37,2013-05-18 02:31:00,
2013-05-17 22:36:00,47.1,37.4,30.18,North,0,0.0,0.0,69,0.00,CLR,,0.00,0.0,WeatherDisplay:10.37,2013-05-18 02:36:00,
2013-05-17 22:41:00,47.0,37.0,30.18,North,0,0.0,0.0,68,0.00,CLR,,0.00,0.0,WeatherDisplay:10.37,2013-05-18 02:41:00,
2013-05-17 22:46:00,46.9,37.3,30.19,North,0,0.0,0.0,69,0.00,CLR,,0.00,0.0,WeatherDisplay:10.37,2013-05-18 02:46:00,
2013-05-17 22:51:00,46.9,37.3,30.19,North,0,0.0,0.0,69,0.00,CLR,,0.00,0.0,WeatherDisplay:10.37,2013-05-18 02:51:00,
2013-05-17 22:56:00,46.7,37.4,30.18,North,0,0.0,0.0,70,0.00,CLR,,0.00,0.0,WeatherDisplay:10.37,2013-05-18 02:56:00,
2013-05-17 23:01:00,46.6,37.3,30.19,North,0,0.0,0.0,70,0.00,CLR,,0.00,0.0,WeatherDisplay:10.37,2013-05-18 03:01:00,
2013-05-17 23:06:00,46.5,37.2,30.19,North,0,0.0,0.0,70,0.00,CLR,,0.00,0.0,WeatherDisplay:10.37,2013-05-18 03:06:00,
2013-05-17 23:11:00,46.3,37.0,30.19,North,0,0.0,0.0,70,0.00,CLR,,0.00,0.0,WeatherDisplay:10.37,2013-05-18 03:11:00,
2013-05-17 23:16:00,46.1,37.2,30.19,North,0,0.0,0.0,71,0.00,CLR,,0.00,0.0,WeatherDisplay:10.37,2013-05-18 03:16:00,
2013-05-17 23:21:00,45.9,37.0,30.19,North,0,0.0,0.0,71,0.00,CLR,,0.00,0.0,WeatherDisplay:10.37,2013-05-18 03:21:00,
2013-05-17 23:26:00,45.9,37.4,30.19,North,0,0.0,0.0,72,0.00,CLR,,0.00,0.0,WeatherDisplay:10.37,2013-05-18 03:26:00,
2013-05-17 23:31:00,45.9,37.4,30.19,North,0,0.0,0.0,72,0.00,CLR,,0.00,0.0,WeatherDisplay:10.37,2013-05-18 03:31:00,
2013-05-17 23:36:00,45.9,37.0,30.19,North,0,0.0,0.0,71,0.00,CLR,,0.00,0.0,WeatherDisplay:10.37,2013-05-18 03:36:00,
2013-05-17 23:41:00,46.0,37.5,30.19,North,0,0.0,0.0,72,0.00,CLR,,0.00,0.0,WeatherDisplay:10.37,2013-05-18 03:41:00,
2013-05-17 23:46:00,46.0,37.5,30.20,North,0,0.0,0.0,72,0.00,CLR,,0.00,0.0,WeatherDisplay:10.37,2013-05-18 03:46:00,
2013-05-17 23:51:00,46.0,37.1,30.20,North,0,0.0,0.0,71,0.00,CLR,,0.00,0.0,WeatherDisplay:10.37,2013-05-18 03:51:00,
2013-05-17 23:56:00,46.0,37.1,30.20,North,0,0.0,0.0,71,0.00,CLR,,0.00,0.0,WeatherDisplay:10.37,2013-05-18 03:56:00,